Current Version              Previous Version:    01  02  03  04  05  06  07  08  09  10  11  12  13  14  15  16  17  18  19  20  21  22  23  24  25  26  27  28  29  30  
   31  32  33  34  35  36  37  38  39  40  41  42  43  44  45  46  47  48  49  50  51  52  53  54  55  56  57  58  59  60  

[Printable]
668
ASUS44 KFWD 201910
RWRTX
NORTH TEXAS HOURLY WEATHER ROUNDUP
NATIONAL WEATHER SERVICE FORT WORTH TX
200 PM CDT MON OCT 20 2014

NOTE: "FAIR" INDICATES FEW OR NO CLOUDS BELOW 12,000 FEET WITH NO
SIGNIFICANT WEATHER AND/OR OBSTRUCTIONS TO VISIBILITY.

TXZ118-119-202000-
DALLAS/FORT WORTH METROPLEX

CITY           SKY/WX    TMP DP  RH WIND       PRES   REMARKS
DFW AIRPORT    MOSUNNY   79  61  53 CALM      30.04F
DALLAS LOVE    MOSUNNY   80  61  52 VRB6      30.04F
FTW MEACHAM    MOSUNNY   80  60  50 VRB3      30.03F
DAL-EXECUTIVE  MOSUNNY   80  60  50 N5        30.04F
FTW-ALLIANCE   MOSUNNY   80  60  50 CALM      30.04F
FTW-NAS-JRB    MOSUNNY   81  59  47 CALM      30.08F
FTW-SPINKS     MOSUNNY   81  61  50 CALM      30.06F
ARLINGTON      MOSUNNY   81  60  48 W7        30.04F
GRAND PRAIRIE  SUNNY     77  63  61 MISG      30.05F
ADDISON        MOSUNNY   79  59  50 SW5       30.05F
MESQUITE       SUNNY     79  59  50 SW3       30.05F
LANCASTER      SUNNY     78  58  49 CALM      30.05F
$$

TXZ091>094-102>105-117-120-121-131>134-202000-
NORTH CENTRAL TEXAS

CITY           SKY/WX    TMP DP  RH WIND       PRES   REMARKS
SHRMAN/DENISON SUNNY     78  64  60 S6        30.05F
GAINESVILLE    SUNNY     78  62  56 MISG      30.06F
BOWIE          MOSUNNY   81  60  48 CALM      30.04F
BRIDGEPORT     MOSUNNY   79  60  51 CALM      30.06F
DECATUR        MOSUNNY   79  59  50 W3        30.05F
DENTON         SUNNY     79  61  53 VRB5      30.04F
MCKINNEY       SUNNY     78  60  53 W6        30.04F
GREENVILLE     SUNNY     77  57  50 CALM      30.06F
ROCKWALL       SUNNY     77  61  57 CALM      30.04F
TERRELL        SUNNY     77  61  57 SW3       30.06F
WAXAHACHIE     MOSUNNY   76  62  60 CALM      30.05F
CLEBURNE       MOSUNNY   77  63  61 CALM      30.06F
GRANBURY       MOSUNNY   82  61  49 N3        30.05F
$$

TXZ083>090-098>101-113>116-127>130-139>142-154-155-202000-
WESTERN NORTH TEXAS

CITY           SKY/WX    TMP DP  RH WIND       PRES   REMARKS
WICHITA FALLS  SUNNY     81  60  48 VRB5      30.02F
WF-KICKAPOO    SUNNY     82  57  42 SW6       30.04F
VERNON         SUNNY     84  55  37 SW7       30.03F
ABILENE        MOSUNNY   77  57  50 CALM      30.08F
ABILENE-DYESS  MOSUNNY   80  58  46 SE5       30.06F
BRECKENRIDGE   SUNNY     80  57  45 CALM      30.05F
GRAHAM         MOSUNNY   79  60  51 CALM      30.03F
MINERAL WELLS  MOSUNNY   81  59  47 N6        30.03F
STEPHENVILLE   PTSUNNY   77  58  51 CALM      30.09F
COMANCHE       CLOUDY    75  62  63 NW5       30.08F
BROWNWOOD      MOSUNNY   75  59  57 CALM      30.08F
COLEMAN        MOSUNNY   79  60  52 CALM      30.08F
BRADY          MOSUNNY   77  55  47 E6        30.07F
$$

TXZ143>147-156>162-174-175-202000-
CENTRAL TEXAS

CITY           SKY/WX    TMP DP  RH WIND       PRES   REMARKS
WACO           MOSUNNY   79  61  53 CALM      30.05F
WACO-TSTC      SUNNY     79  63  57 CALM      30.05F
WACO-MCGREGOR  MOSUNNY   81  61  50 SE3       30.07F
HILLSBORO      MOSUNNY   80  60  51 N6        30.05F
CORSICANA      MOSUNNY   78  59  51 NW3       30.06F
MEXIA          MOSUNNY   77  62  58 NW5       30.05F
HEARNE         SUNNY     80  62  55 N6        30.06F
CAMERON        MOSUNNY   80  63  55 E3        30.05F
TEMPLE         MOSUNNY   79  57  47 CALM      30.05F
KILLEEN        PTSUNNY   81  59  47 N6        30.05F
KILLEEN-SKYLRK MOSUNNY   79  59  50 CALM      30.06F
FORT HOOD      MOSUNNY   80  60  50 CALM      30.05F
GATESVILLE     MOSUNNY   79  61  53 CALM      30.08F
HAMILTON       MOSUNNY   78  57  48 N6        30.07F
LAMPASAS       MOSUNNY   77  60  55 N5        30.06F
$$

TXZ095>097-106>112-122>126-135>138-148>153-164>167-202000-
EAST TEXAS

CITY           SKY/WX    TMP DP  RH WIND       PRES   REMARKS
PARIS          SUNNY     73  55  53 CALM      30.06F
SULPHUR SPRNGS   N/A     75  58  53 CALM      30.08F
MOUNT PLEASANT SUNNY     75  54  49 CALM      30.07F
MINEOLA        SUNNY     77  59  53 CALM      30.07F
TYLER          SUNNY     78  57  48 NE3       30.06F
LONGVIEW       SUNNY     77  55  46 N3        30.06F
MARSHALL       SUNNY     77  53  43 NW7       30.08F
ATHENS         SUNNY     75  59  57 CALM      30.05F
PALESTINE      MOSUNNY   77  61  58 NW5       30.07F
JACKSONVILLE   MOSUNNY   74  56  53 N5        30.08F
HENDERSON      SUNNY     76  54  46 CALM      30.07F
NACOGDOCHES    MOSUNNY   77  57  50 NE3       30.06F
LUFKIN         MOSUNNY   81  57  43 N6        30.05F
$$

SUPPLEMENTAL OBSERVATIONS (CENTRAL)

CITY           SKY/WX    TMP DP  RH WIND       PRES   REMARKS
CADDO GRASSLND   N/A     79  61  53 S6          N/A
PAT MAYSE LAKE   N/A     73  55  53 S2          N/A
GREENVILLE       N/A     81  59  47 SE5         N/A
CEDAR HILL       N/A     82  61  47 W2          N/A
PALESTINE        N/A     79  59  50 N5          N/A
MCGREGOR         N/A    N/A N/A N/A NE3         N/A
TEMPLE           N/A     79  61  53 SE3         N/A
$$

SUPPLEMENTAL OBSERVATIONS (WEST)

CITY           SKY/WX    TMP DP  RH WIND       PRES   REMARKS
MILLERS CREEK    N/A     82  68  61 SW2G14      N/A
POSSUM KINGDOM   N/A     81  55  41 N5          N/A
GRANBURY         N/A     82  59  44 N5          N/A
HAMBY            N/A     81  57  44 W6          N/A
IVIE RESERVOIR   N/A     79  59  50 N6          N/A
COLORADO BEND    N/A     79  59  50 NE1         N/A
$$

SUPPLEMENTAL OBSERVATIONS (EAST)

CITY           SKY/WX    TMP DP  RH WIND       PRES   REMARKS
CLARKSVILLE      N/A     79  57  47 W1          N/A
GILMER           N/A     75  54  46 NW1         N/A
HENDERSON        N/A     77  52  41 VRB7        N/A
N SABINE NF      N/A     79  54  41 MISG        N/A
$$

SUPPLEMENTAL OBSERVATIONS ARE A COLLECTION OF AUTOMATED INSTRUMENTS
THAT ARE MAINTAINED BY A VARIETY OF FEDERAL AND STATE AGENCIES.
CERTAIN ELEMENTS...SUCH AS HUMIDITY VALUES AND SUSTAINED WIND
SPEEDS...MAY BE APPROXIMATED.